#timestamp,LO_Frequency,Hit,StdDev 
1609603215.3,286046999.1,N
1609603235.1,286046999.6,N
1609603255.9,286046994.9,Y
1609603275.7,286046996.7,P
1609603295.6,286046999.5,N
1609603315.4,286046999.0,N
1609603335.2,286046998.3,N
1609603355.1,286047000.5,N
1609603356.0,286047000.5,N
1609603375.8,286047000.6,N
1609603395.7,286046999.9,N
1609603415.5,286047000.9,N
1609603435.3,286047000.8,N
1609603455.2,286046998.6,N
1609603475.9,286046997.7,N
1609603495.7,286046999.1,N
1609603515.6,286046999.6,N
1609603535.4,286046998.7,N
1609603555.2,286046999.0,N
1609603575.1,286046998.5,N
1609603576.0,286046998.5,N
1609603595.8,286046997.4,N
1609603615.7,286046997.2,N
1609603635.5,286046999.0,N
1609603655.3,286046999.1,N
1609603675.2,286046998.9,N
1609603695.0,286046999.2,N
1609603695.9,286046999.2,N
1609603715.8,286046998.7,N
1609603735.6,286046998.4,N
1609603755.4,286047000.9,N
1609603775.3,286047000.7,N
1609603795.1,286047000.4,N
1609603815.8,286046999.9,N
1609603835.7,286047002.1,N
1609603855.5,286047002.4,N
1609603875.4,286047001.6,N
1609603895.2,286047002.5,N
1609603915.0,286046999.7,N
1609603915.9,286046999.7,N
1609603935.8,286046999.9,N
1609603955.6,286047000.3,N
1609603975.5,286047001.2,N
1609603995.3,286046998.1,N
1609604015.1,286046998.2,N
1609604035.9,286047000.5,N
1609604055.7,286047002.5,N
1609604075.6,286046999.7,N
1609604095.4,286047001.0,N
1609604115.2,286047000.6,N
1609604135.1,286047000.2,N
1609604136.0,286047000.2,N
1609604155.8,286046998.4,N
1609604175.6,286047001.1,N
1609604195.5,286046998.1,N
1609604215.3,286046998.4,N
1609604235.2,286046998.8,N
1609604255.9,286046997.7,N
1609604275.2,286046998.0,N
1609604295.0,286046995.0,Y
1609604295.9,286046995.0,P
1609604315.7,286046997.6,N
1609604335.6,286046997.1,N
1609604355.4,286046996.8,N
1609604375.3,286046996.5,N
1609604395.1,286046998.8,N
1609604396.0,286046998.8,N
1609604415.8,286046996.7,N
1609604435.7,286046997.5,N
1609604455.5,286046995.2,Y
1609604475.3,286046999.4,P
1609604495.2,286047001.0,N
1609604515.0,286047000.8,N
1609604515.9,286047000.8,N
1609604535.8,286047000.7,N
1609604555.6,286047000.8,N
1609604575.4,286046998.2,N
1609604595.3,286047000.9,N
1609604615.1,286047000.4,N
1609604635.9,286046998.5,N
1609604655.7,286046999.1,N
1609604675.5,286046996.9,N
1609604695.4,286046995.1,Y
1609604715.2,286046993.4,P
1609604735.0,286046993.7,N
1609604735.9,286046993.7,N
1609604755.8,286046994.8,N
1609604775.6,286046994.3,N
1609604795.5,286046996.3,N
1609604815.3,286046998.0,N
1609604835.1,286046997.9,N
1609604855.9,286046997.1,N
1609604875.7,286046995.4,N
1609604895.5,286046995.1,N
1609604915.4,286046995.6,N
1609604935.2,286046995.9,N
1609604955.1,286046994.1,Y
1609604956.0,286046994.1,P
1609604975.8,286047000.8,N
1609604995.6,286047001.1,N
1609605015.5,286046998.5,N
1609605035.3,286046996.5,N
1609605055.1,286046999.6,N
1609605075.9,286046998.6,N
1609605095.7,286047000.8,N
1609605115.6,286046998.7,N
1609605135.4,286046997.2,N
1609605155.2,286046997.3,N
1609605175.1,286046997.2,N
1609605176.0,286046997.2,N
1609605195.8,286046997.3,N
1609605215.7,286046999.1,N
1609605235.5,286046999.6,N
1609605255.3,286046998.4,N
1609605275.2,286046998.8,N
1609605295.0,286046996.6,N
1609605295.9,286046996.6,N
1609605315.7,286046997.6,N
1609605335.6,286046997.2,N
1609605355.4,286046997.3,N
1609605375.3,286046997.8,N
1609605395.1,286046995.4,N
1609605415.8,286046995.2,N
1609605435.7,286046996.0,N
1609605455.6,286046993.4,Y
1609605475.4,286046995.0,P
1609605495.2,286046998.0,N
1609605515.1,286046995.0,P
1609605516.0,286046995.0,Y
1609605535.8,286047000.0,P
1609605555.6,286047000.2,N
1609605575.5,286047011.9,P
1609605595.3,286046998.7,N
1609605615.2,286046999.3,N
1609605635.9,286047007.5,N
1609605655.7,286047015.8,Y
1609605675.6,286047018.4,P
1609605695.4,286047013.9,N
1609605715.2,286047010.1,N
1609605735.1,286047008.5,N
1609605736.0,286047008.5,N
1609605755.8,286047006.7,N
1609605775.7,286047006.9,N
1609605795.5,286047009.1,N
1609605815.3,286047006.4,N
1609605835.2,286047007.0,N
1609605855.0,286047007.3,N
1609605855.9,286047007.3,N
1609605875.7,286047006.8,N
1609605895.6,286047005.8,N
1609605915.4,286047005.5,N
1609605935.3,286047005.9,N
1609605955.1,286047003.7,N
1609605956.0,286047003.7,N
1609605975.8,286047004.3,N
1609605995.7,286047001.7,N
1609606015.5,286047002.4,N
1609606035.3,286047001.6,N
1609606055.2,286047003.5,N
1609606075.0,286047003.7,N
1609606075.9,286047003.7,N
1609606095.8,286047004.0,N
1609606115.6,286046998.1,N
1609606135.4,286046998.8,N
1609606155.3,286047001.0,N
1609606175.1,286046999.8,N
1609606195.8,286047000.2,N
1609606215.7,286047002.5,N
1609606235.5,286047004.0,N
1609606255.4,286047003.6,N
1609606275.2,286046999.7,N
1609606295.0,286046999.3,N
1609606295.9,286046999.3,N
1609606315.8,286047000.3,N
1609606335.6,286047001.7,N
1609606355.4,286047004.4,N
1609606375.3,286047004.2,N
1609606395.1,286047003.1,N
1609606415.9,286047001.5,N
1609606435.7,286047001.4,N
1609606455.5,286047004.4,N
1609606475.4,286047003.7,N
1609606495.2,286047003.8,N
1609606515.0,286047001.4,N
1609606515.9,286047001.4,N
1609606535.8,286047002.1,N
1609606555.6,286047003.2,N
1609606575.5,286047003.5,N
1609606595.3,286047003.7,N
1609606615.1,286047005.5,N
1609606635.9,286047004.3,N
1609606655.7,286047002.0,N
1609606675.5,286047003.4,N
1609606695.4,286047005.4,N
1609606715.2,286047007.2,Y
1609606735.1,286047004.0,P
1609606736.0,286047004.0,P
1609606755.8,286047004.1,P
1609606775.6,286047002.3,Y
1609606795.5,286046996.9,P
